Time,TemperatureF,DewpointF,PressureIn,WindDirection,WindDirectionDegrees,WindSpeedMPH,WindSpeedGustMPH,Humidity,HourlyPrecipIn,Conditions,Clouds,dailyrainin,SoftwareType,DateUTC
2013-12-16 00:02:00,37.0,32.9,30.29,NW,317,0.0,0.0,85,0.00,,,0.00,meteobridge,2013-12-16 08:02:00,
2013-12-16 00:09:00,37.2,33.4,30.29,NW,317,0.0,0.0,86,0.00,,,0.00,meteobridge,2013-12-16 08:09:00,
2013-12-16 00:15:00,37.2,33.4,30.29,NW,316,0.0,0.0,86,0.00,,,0.00,meteobridge,2013-12-16 08:15:00,
2013-12-16 00:21:00,37.4,33.6,30.29,NW,316,0.0,0.0,86,0.00,,,0.00,meteobridge,2013-12-16 08:21:00,
2013-12-16 00:27:00,37.2,33.4,30.29,NW,317,0.0,0.0,86,0.00,,,0.00,meteobridge,2013-12-16 08:27:00,
2013-12-16 00:33:00,37.2,33.4,30.28,NW,320,0.0,0.0,86,0.00,,,0.00,meteobridge,2013-12-16 08:33:00,
2013-12-16 00:40:00,37.0,33.3,30.28,NW,319,0.0,0.0,86,0.00,,,0.00,meteobridge,2013-12-16 08:40:00,
2013-12-16 00:46:00,37.0,33.3,30.28,NW,319,0.0,0.0,86,0.00,,,0.00,meteobridge,2013-12-16 08:46:00,
2013-12-16 00:52:00,37.0,33.6,30.28,NW,319,0.0,0.0,87,0.00,,,0.00,meteobridge,2013-12-16 08:52:00,
2013-12-16 00:58:00,37.0,33.3,30.28,NW,319,0.0,0.0,86,0.00,,,0.00,meteobridge,2013-12-16 08:58:00,
2013-12-16 01:04:00,36.7,32.9,30.27,NW,319,0.0,0.0,86,0.00,,,0.00,meteobridge,2013-12-16 09:04:00,
2013-12-16 01:11:00,36.7,33.3,30.27,NW,319,0.0,0.0,87,0.00,,,0.00,meteobridge,2013-12-16 09:11:00,
2013-12-16 01:17:00,36.7,33.4,30.27,NW,319,0.0,0.0,88,0.00,,,0.00,meteobridge,2013-12-16 09:17:00,
2013-12-16 01:23:00,36.5,33.1,30.27,NW,319,0.0,0.0,87,0.00,,,0.00,meteobridge,2013-12-16 09:23:00,
2013-12-16 01:29:00,36.3,32.9,30.27,NW,320,0.0,0.0,87,0.00,,,0.00,meteobridge,2013-12-16 09:29:00,
2013-12-16 01:35:00,36.5,33.1,30.27,NW,320,0.0,0.0,87,0.00,,,0.00,meteobridge,2013-12-16 09:35:00,
2013-12-16 01:42:00,36.1,32.7,30.27,NW,320,0.0,0.0,87,0.00,,,0.00,meteobridge,2013-12-16 09:42:00,
2013-12-16 01:48:00,36.1,32.7,30.27,NW,319,0.0,0.0,87,0.00,,,0.00,meteobridge,2013-12-16 09:48:00,
2013-12-16 01:54:00,36.0,32.5,30.27,NW,319,0.0,0.0,87,0.00,,,0.00,meteobridge,2013-12-16 09:54:00,
2013-12-16 02:00:00,35.8,32.5,30.27,NW,320,0.0,0.0,88,0.00,,,0.00,meteobridge,2013-12-16 10:00:00,
2013-12-16 02:06:00,35.4,32.2,30.27,NW,320,0.0,0.0,88,0.00,,,0.00,meteobridge,2013-12-16 10:06:00,
2013-12-16 02:12:00,35.2,32.0,30.27,NW,319,0.0,0.0,88,0.00,,,0.00,meteobridge,2013-12-16 10:12:00,
2013-12-16 02:19:00,35.1,32.2,30.27,NW,319,0.0,0.0,89,0.00,,,0.00,meteobridge,2013-12-16 10:19:00,
2013-12-16 02:25:00,35.1,31.8,30.27,NW,319,0.0,0.0,88,0.00,,,0.00,meteobridge,2013-12-16 10:25:00,
2013-12-16 02:31:00,34.9,32.0,30.27,NW,320,0.0,0.9,89,0.00,,,0.00,meteobridge,2013-12-16 10:31:00,
2013-12-16 02:38:00,34.7,31.8,30.27,NW,320,0.0,0.0,89,0.00,,,0.00,meteobridge,2013-12-16 10:38:00,
2013-12-16 02:44:00,34.3,31.5,30.27,NW,319,0.0,0.0,89,0.00,,,0.00,meteobridge,2013-12-16 10:44:00,
2013-12-16 02:50:00,34.5,31.8,30.27,NW,320,0.0,0.0,90,0.00,,,0.00,meteobridge,2013-12-16 10:50:00,
2013-12-16 02:56:00,34.5,31.6,30.27,NW,319,0.0,0.0,89,0.00,,,0.00,meteobridge,2013-12-16 10:56:00,
2013-12-16 03:02:00,34.3,31.5,30.26,NW,319,0.0,0.0,89,0.00,,,0.00,meteobridge,2013-12-16 11:02:00,
2013-12-16 03:08:00,34.3,31.5,30.26,NW,319,0.0,0.0,89,0.00,,,0.00,meteobridge,2013-12-16 11:08:00,
2013-12-16 03:14:00,34.0,31.1,30.26,NW,320,0.0,0.0,89,0.00,,,0.00,meteobridge,2013-12-16 11:14:00,
2013-12-16 03:21:00,34.2,31.5,30.26,NW,320,0.0,0.0,90,0.00,,,0.00,meteobridge,2013-12-16 11:21:00,
2013-12-16 03:27:00,34.0,31.3,30.26,NW,319,0.0,0.0,90,0.00,,,0.00,meteobridge,2013-12-16 11:27:00,
2013-12-16 03:33:00,34.2,31.5,30.26,NW,319,0.0,0.0,90,0.00,,,0.00,meteobridge,2013-12-16 11:33:00,
2013-12-16 03:40:00,34.2,31.5,30.25,NW,320,0.0,0.0,90,0.00,,,0.00,meteobridge,2013-12-16 11:40:00,
2013-12-16 03:46:00,34.3,31.6,30.25,NW,320,0.0,0.0,90,0.00,,,0.00,meteobridge,2013-12-16 11:46:00,
2013-12-16 03:52:00,34.5,31.8,30.25,NW,319,0.0,0.0,90,0.00,,,0.00,meteobridge,2013-12-16 11:52:00,
2013-12-16 03:58:00,34.5,31.8,30.25,NW,319,0.0,0.0,90,0.00,,,0.00,meteobridge,2013-12-16 11:58:00,
2013-12-16 04:04:00,34.3,31.5,30.25,NW,320,0.0,0.0,89,0.00,,,0.00,meteobridge,2013-12-16 12:04:00,
2013-12-16 04:11:00,34.2,31.5,30.25,NW,320,0.0,0.0,90,0.00,,,0.00,meteobridge,2013-12-16 12:11:00,
2013-12-16 04:17:00,34.2,31.5,30.25,NW,320,0.0,0.0,90,0.00,,,0.00,meteobridge,2013-12-16 12:17:00,
2013-12-16 04:23:00,34.2,31.5,30.25,NW,319,0.0,0.0,90,0.00,,,0.00,meteobridge,2013-12-16 12:23:00,
2013-12-16 04:29:00,34.0,31.3,30.25,NW,319,0.0,0.0,90,0.00,,,0.00,meteobridge,2013-12-16 12:29:00,
2013-12-16 04:35:00,34.2,31.8,30.25,NW,319,0.0,0.0,91,0.00,,,0.00,meteobridge,2013-12-16 12:35:00,
2013-12-16 04:41:00,34.3,31.6,30.25,NW,319,0.0,0.0,90,0.00,,,0.00,meteobridge,2013-12-16 12:41:00,
2013-12-16 04:48:00,34.2,31.5,30.24,NW,319,0.0,0.0,90,0.00,,,0.00,meteobridge,2013-12-16 12:48:00,
2013-12-16 04:54:00,34.3,31.6,30.25,NW,319,0.0,0.0,90,0.00,,,0.00,meteobridge,2013-12-16 12:54:00,
2013-12-16 05:00:00,34.3,31.6,30.24,NW,320,0.0,0.0,90,0.00,,,0.00,meteobridge,2013-12-16 13:00:00,
2013-12-16 05:07:00,34.2,31.5,30.24,ENE,67,0.0,0.0,90,0.00,,,0.00,meteobridge,2013-12-16 13:07:00,
2013-12-16 05:13:00,34.2,31.5,30.24,ENE,67,0.0,0.0,90,0.00,,,0.00,meteobridge,2013-12-16 13:13:00,
2013-12-16 05:19:00,34.0,31.3,30.24,ENE,68,0.0,0.0,90,0.00,,,0.00,meteobridge,2013-12-16 13:19:00,
2013-12-16 05:25:00,33.8,31.1,30.25,ENE,68,0.0,0.0,90,0.00,,,0.00,meteobridge,2013-12-16 13:25:00,
2013-12-16 05:31:00,34.2,31.8,30.24,North,10,0.0,0.9,91,0.00,,,0.00,meteobridge,2013-12-16 13:31:00,
2013-12-16 05:37:00,34.2,31.5,30.25,North,10,0.0,0.0,90,0.00,,,0.00,meteobridge,2013-12-16 13:37:00,
2013-12-16 05:44:00,34.0,31.3,30.25,North,10,0.0,0.0,90,0.00,,,0.00,meteobridge,2013-12-16 13:44:00,
2013-12-16 05:50:00,33.6,30.9,30.25,North,10,0.0,0.0,90,0.00,,,0.00,meteobridge,2013-12-16 13:50:00,
2013-12-16 05:56:00,33.6,31.3,30.25,North,10,0.0,0.0,91,0.00,,,0.00,meteobridge,2013-12-16 13:56:00,
2013-12-16 06:02:00,33.6,31.3,30.25,North,10,0.0,0.0,91,0.00,,,0.00,meteobridge,2013-12-16 14:02:00,
2013-12-16 06:09:00,33.6,31.3,30.25,North,349,0.0,0.0,91,0.00,,,0.00,meteobridge,2013-12-16 14:09:00,
2013-12-16 06:15:00,33.6,30.9,30.25,North,349,0.0,0.0,90,0.00,,,0.00,meteobridge,2013-12-16 14:15:00,
2013-12-16 06:21:00,33.6,31.3,30.24,North,349,0.0,0.0,91,0.00,,,0.00,meteobridge,2013-12-16 14:21:00,
2013-12-16 06:27:00,33.6,31.3,30.25,NNW,331,0.0,0.0,91,0.00,,,0.00,meteobridge,2013-12-16 14:27:00,
2013-12-16 06:33:00,33.6,31.3,30.25,NNW,331,0.0,0.0,91,0.00,,,0.00,meteobridge,2013-12-16 14:33:00,
2013-12-16 06:39:00,33.8,31.5,30.25,NNW,331,0.0,0.0,91,0.00,,,0.00,meteobridge,2013-12-16 14:39:00,
2013-12-16 06:46:00,34.2,32.0,30.25,NW,319,0.9,0.9,92,0.00,,,0.00,meteobridge,2013-12-16 14:46:00,
2013-12-16 06:52:00,34.5,32.2,30.25,NW,323,0.0,0.0,91,0.00,,,0.00,meteobridge,2013-12-16 14:52:00,
2013-12-16 06:58:00,34.9,32.5,30.25,NW,320,0.0,0.0,91,0.00,,,0.00,meteobridge,2013-12-16 14:58:00,
2013-12-16 07:04:00,35.1,32.7,30.25,NW,321,0.0,0.9,91,0.00,,,0.00,meteobridge,2013-12-16 15:04:00,
2013-12-16 07:10:00,35.2,32.5,30.26,NW,321,0.0,0.9,90,0.00,,,0.00,meteobridge,2013-12-16 15:10:00,
2013-12-16 07:16:00,35.4,32.7,30.26,NW,321,0.0,0.9,90,0.00,,,0.00,meteobridge,2013-12-16 15:16:00,
2013-12-16 07:23:00,35.4,32.5,30.26,NW,321,0.0,0.0,89,0.00,,,0.00,meteobridge,2013-12-16 15:23:00,
2013-12-16 07:29:00,35.1,32.2,30.26,NW,321,0.0,0.0,89,0.00,,,0.00,meteobridge,2013-12-16 15:29:00,
2013-12-16 07:35:00,35.1,32.4,30.26,NW,321,0.0,0.0,90,0.00,,,0.00,meteobridge,2013-12-16 15:35:00,
2013-12-16 07:41:00,35.1,32.2,30.26,NW,321,0.0,0.0,89,0.00,,,0.00,meteobridge,2013-12-16 15:41:00,
2013-12-16 07:47:00,34.9,32.2,30.26,NW,321,0.0,0.0,90,0.00,,,0.00,meteobridge,2013-12-16 15:47:00,
2013-12-16 07:54:00,35.1,32.4,30.26,NW,321,0.0,0.0,90,0.00,,,0.00,meteobridge,2013-12-16 15:54:00,
2013-12-16 08:00:00,36.3,34.0,30.26,NW,321,0.0,0.0,91,0.00,,,0.00,meteobridge,2013-12-16 16:00:00,
2013-12-16 08:06:00,37.2,33.8,30.26,NW,321,0.0,0.0,87,0.00,,,0.00,meteobridge,2013-12-16 16:06:00,
2013-12-16 08:12:00,37.8,34.2,30.26,NW,322,0.0,0.9,87,0.00,,,0.00,meteobridge,2013-12-16 16:12:00,
2013-12-16 08:18:00,38.3,34.5,30.26,NW,325,0.9,0.9,86,0.00,,,0.00,meteobridge,2013-12-16 16:18:00,
2013-12-16 08:25:00,39.0,34.9,30.26,NNW,332,0.0,0.9,85,0.00,,,0.00,meteobridge,2013-12-16 16:25:00,
2013-12-16 08:31:00,39.9,35.2,30.26,NNW,332,0.0,0.9,83,0.00,,,0.00,meteobridge,2013-12-16 16:31:00,
2013-12-16 08:37:00,41.2,36.1,30.26,NNW,333,0.0,0.0,82,0.00,,,0.00,meteobridge,2013-12-16 16:37:00,
2013-12-16 08:43:00,42.3,36.5,30.26,NNW,332,0.0,0.9,80,0.00,,,0.00,meteobridge,2013-12-16 16:43:00,
2013-12-16 08:49:00,43.3,37.2,30.27,NNW,331,0.0,0.0,79,0.00,,,0.00,meteobridge,2013-12-16 16:49:00,
2013-12-16 08:56:00,44.6,37.2,30.27,NNW,337,0.9,2.9,75,0.00,,,0.00,meteobridge,2013-12-16 16:56:00,
2013-12-16 09:02:00,45.5,37.8,30.27,NNW,340,0.0,2.0,74,0.00,,,0.00,meteobridge,2013-12-16 17:02:00,
2013-12-16 09:08:00,46.0,37.6,30.27,NNW,332,0.9,2.0,72,0.00,,,0.00,meteobridge,2013-12-16 17:08:00,
2013-12-16 09:14:00,46.6,38.1,30.27,West,281,0.0,0.9,72,0.00,,,0.00,meteobridge,2013-12-16 17:14:00,
2013-12-16 09:20:00,47.3,38.3,30.27,NNW,332,2.0,2.0,71,0.00,,,0.00,meteobridge,2013-12-16 17:20:00,
2013-12-16 09:26:00,48.0,38.7,30.27,NW,317,0.9,2.0,70,0.00,,,0.00,meteobridge,2013-12-16 17:26:00,
2013-12-16 09:33:00,48.7,38.7,30.27,NW,324,0.9,2.0,68,0.00,,,0.00,meteobridge,2013-12-16 17:33:00,
2013-12-16 09:39:00,49.5,38.7,30.27,NNW,330,0.9,2.0,66,0.00,,,0.00,meteobridge,2013-12-16 17:39:00,
2013-12-16 09:45:00,50.4,39.0,30.27,NNW,335,0.9,2.0,65,0.00,,,0.00,meteobridge,2013-12-16 17:45:00,
2013-12-16 09:51:00,51.1,38.5,30.27,NW,321,2.0,2.0,62,0.00,,,0.00,meteobridge,2013-12-16 17:51:00,
2013-12-16 09:57:00,51.6,38.1,30.27,NW,308,0.0,2.0,60,0.00,,,0.00,meteobridge,2013-12-16 17:57:00,
2013-12-16 10:03:00,52.5,38.7,30.27,NNW,338,0.0,0.9,59,0.00,,,0.00,meteobridge,2013-12-16 18:03:00,
2013-12-16 10:09:00,54.3,39.4,30.27,NNW,338,0.0,0.0,57,0.00,,,0.00,meteobridge,2013-12-16 18:09:00,
2013-12-16 10:16:00,55.6,39.2,30.27,NNW,338,0.0,0.0,54,0.00,,,0.00,meteobridge,2013-12-16 18:16:00,
2013-12-16 10:22:00,55.8,37.9,30.26,NNW,333,0.0,0.9,51,0.00,,,0.00,meteobridge,2013-12-16 18:22:00,
2013-12-16 10:28:00,56.1,38.3,30.26,NE,39,0.0,0.9,51,0.00,,,0.00,meteobridge,2013-12-16 18:28:00,
2013-12-16 10:35:00,57.7,38.7,30.26,ENE,75,0.9,0.9,49,0.00,,,0.00,meteobridge,2013-12-16 18:35:00,
2013-12-16 10:41:00,57.7,38.1,30.25,East,86,0.0,0.9,48,0.00,,,0.00,meteobridge,2013-12-16 18:41:00,
2013-12-16 10:47:00,58.3,38.1,30.25,North,6,0.0,2.0,47,0.00,,,0.00,meteobridge,2013-12-16 18:47:00,
2013-12-16 10:53:00,58.6,37.9,30.24,NNE,17,0.0,2.0,46,0.00,,,0.00,meteobridge,2013-12-16 18:53:00,
2013-12-16 10:59:00,59.4,37.9,30.24,NNW,328,0.9,2.0,45,0.00,,,0.00,meteobridge,2013-12-16 18:59:00,
2013-12-16 11:06:00,59.5,38.1,30.24,NNW,346,0.9,0.9,45,0.00,,,0.00,meteobridge,2013-12-16 19:06:00,
2013-12-16 11:12:00,60.3,37.0,30.23,NW,312,0.9,0.9,42,0.00,,,0.00,meteobridge,2013-12-16 19:12:00,
2013-12-16 11:18:00,61.5,38.3,30.23,NE,50,0.0,0.0,42,0.00,,,0.00,meteobridge,2013-12-16 19:18:00,
2013-12-16 11:25:00,63.1,36.5,30.22,SE,134,0.9,2.0,37,0.00,,,0.00,meteobridge,2013-12-16 19:25:00,
2013-12-16 11:31:00,64.0,36.5,30.22,SE,142,0.9,6.0,36,0.00,,,0.00,meteobridge,2013-12-16 19:31:00,
2013-12-16 11:37:00,64.2,36.7,30.22,ENE,71,2.0,4.9,36,0.00,,,0.00,meteobridge,2013-12-16 19:37:00,
2013-12-16 11:43:00,64.2,37.4,30.22,SSE,150,2.0,2.9,37,0.00,,,0.00,meteobridge,2013-12-16 19:43:00,
2013-12-16 11:49:00,64.9,38.1,30.21,SSE,162,2.9,4.0,37,0.00,,,0.00,meteobridge,2013-12-16 19:49:00,
2013-12-16 11:55:00,64.9,36.7,30.21,South,184,2.9,4.9,35,0.00,,,0.00,meteobridge,2013-12-16 19:55:00,
2013-12-16 12:01:00,64.9,36.7,30.21,East,101,2.0,4.9,35,0.00,,,0.00,meteobridge,2013-12-16 20:01:00,
2013-12-16 12:07:00,65.5,36.3,30.21,NE,43,2.0,4.9,34,0.00,,,0.00,meteobridge,2013-12-16 20:07:00,
2013-12-16 12:13:00,65.3,36.1,30.20,ESE,112,2.9,4.0,34,0.00,,,0.00,meteobridge,2013-12-16 20:13:00,
2013-12-16 12:19:00,65.5,36.3,30.20,East,96,2.0,4.0,34,0.00,,,0.00,meteobridge,2013-12-16 20:19:00,
2013-12-16 12:25:00,65.7,35.8,30.19,ESE,105,2.9,6.0,33,0.00,,,0.00,meteobridge,2013-12-16 20:25:00,
2013-12-16 12:31:00,66.2,37.0,30.19,SSE,155,2.9,2.9,34,0.00,,,0.00,meteobridge,2013-12-16 20:31:00,
2013-12-16 12:37:00,66.2,36.3,30.19,East,88,0.0,2.9,33,0.00,,,0.00,meteobridge,2013-12-16 20:37:00,
2013-12-16 12:43:00,66.4,36.3,30.19,SSE,156,0.0,4.0,33,0.00,,,0.00,meteobridge,2013-12-16 20:43:00,
2013-12-16 12:49:00,66.4,37.2,30.19,SSE,166,2.0,4.0,34,0.00,,,0.00,meteobridge,2013-12-16 20:49:00,
2013-12-16 12:55:00,66.7,37.4,30.19,SSW,213,0.9,4.9,34,0.00,,,0.00,meteobridge,2013-12-16 20:55:00,
2013-12-16 13:01:00,66.9,37.6,30.19,SE,144,2.9,6.9,34,0.00,,,0.00,meteobridge,2013-12-16 21:01:00,
2013-12-16 13:07:00,66.9,37.6,30.18,ESE,102,6.0,6.0,34,0.00,,,0.00,meteobridge,2013-12-16 21:07:00,
2013-12-16 13:13:00,66.6,37.4,30.18,ESE,113,4.0,6.9,34,0.00,,,0.00,meteobridge,2013-12-16 21:13:00,
2013-12-16 13:19:00,66.4,37.2,30.18,SE,127,0.9,4.9,34,0.00,,,0.00,meteobridge,2013-12-16 21:19:00,
2013-12-16 13:25:00,66.6,37.4,30.18,NE,53,2.9,4.9,34,0.00,,,0.00,meteobridge,2013-12-16 21:25:00,
2013-12-16 13:31:00,66.6,37.4,30.18,SSE,165,0.9,4.9,34,0.00,,,0.00,meteobridge,2013-12-16 21:31:00,
2013-12-16 13:37:00,66.7,37.4,30.17,SE,133,2.0,6.9,34,0.00,,,0.00,meteobridge,2013-12-16 21:37:00,
2013-12-16 13:43:00,66.6,37.4,30.17,SE,146,4.0,6.0,34,0.00,,,0.00,meteobridge,2013-12-16 21:43:00,
2013-12-16 13:49:00,66.4,37.2,30.17,ESE,122,6.0,6.9,34,0.00,,,0.00,meteobridge,2013-12-16 21:49:00,
2013-12-16 13:56:00,66.2,37.8,30.17,ESE,114,2.0,4.0,35,0.00,,,0.00,meteobridge,2013-12-16 21:56:00,
2013-12-16 14:02:00,66.4,37.2,30.17,ESE,118,2.9,4.9,34,0.00,,,0.00,meteobridge,2013-12-16 22:02:00,
2013-12-16 14:08:00,66.0,36.9,30.16,SE,146,0.9,4.0,34,0.00,,,0.00,meteobridge,2013-12-16 22:08:00,
2013-12-16 14:14:00,66.2,37.0,30.16,South,174,2.0,6.0,34,0.00,,,0.00,meteobridge,2013-12-16 22:14:00,
2013-12-16 14:20:00,66.4,37.2,30.16,ESE,114,4.9,6.0,34,0.00,,,0.00,meteobridge,2013-12-16 22:20:00,
2013-12-16 14:26:00,66.7,37.4,30.16,SSE,167,0.9,2.0,34,0.00,,,0.00,meteobridge,2013-12-16 22:26:00,
2013-12-16 14:32:00,67.3,37.2,30.16,ESE,110,0.0,4.0,33,0.00,,,0.00,meteobridge,2013-12-16 22:32:00,
2013-12-16 14:38:00,67.3,37.2,30.16,South,174,2.0,2.9,33,0.00,,,0.00,meteobridge,2013-12-16 22:38:00,
2013-12-16 14:44:00,67.3,37.2,30.16,ESE,105,2.0,2.9,33,0.00,,,0.00,meteobridge,2013-12-16 22:44:00,
2013-12-16 14:50:00,67.5,37.4,30.15,South,171,2.0,2.0,33,0.00,,,0.00,meteobridge,2013-12-16 22:50:00,
2013-12-16 14:56:00,67.5,37.4,30.15,SE,146,0.0,2.0,33,0.00,,,0.00,meteobridge,2013-12-16 22:56:00,
2013-12-16 15:02:00,67.5,36.5,30.16,SSE,148,4.0,4.9,32,0.00,,,0.00,meteobridge,2013-12-16 23:02:00,
2013-12-16 15:08:00,67.5,36.5,30.16,SE,143,0.9,4.9,32,0.00,,,0.00,meteobridge,2013-12-16 23:08:00,
2013-12-16 15:14:00,67.1,37.0,30.16,ESE,122,2.0,4.9,33,0.00,,,0.00,meteobridge,2013-12-16 23:14:00,
2013-12-16 15:20:00,67.1,37.0,30.16,SSE,148,2.0,4.9,33,0.00,,,0.00,meteobridge,2013-12-16 23:20:00,
2013-12-16 15:26:00,67.3,35.6,30.16,SE,124,2.0,4.0,31,0.00,,,0.00,meteobridge,2013-12-16 23:26:00,
2013-12-16 15:32:00,67.3,35.6,30.16,SSE,160,2.0,4.0,31,0.00,,,0.00,meteobridge,2013-12-16 23:32:00,
2013-12-16 15:38:00,67.3,35.6,30.16,SSE,156,0.9,4.0,31,0.00,,,0.00,meteobridge,2013-12-16 23:38:00,
2013-12-16 15:44:00,66.7,36.0,30.16,SSE,150,4.9,4.9,32,0.00,,,0.00,meteobridge,2013-12-16 23:44:00,
2013-12-16 15:50:00,66.0,35.2,30.16,ESE,113,0.9,2.9,32,0.00,,,0.00,meteobridge,2013-12-16 23:50:00,
2013-12-16 15:56:00,65.5,35.6,30.16,SSE,159,2.0,4.9,33,0.00,,,0.00,meteobridge,2013-12-16 23:56:00,
2013-12-16 16:03:00,64.9,36.0,30.16,SSW,199,0.0,2.9,34,0.00,,,0.00,meteobridge,2013-12-17 00:03:00,
2013-12-16 16:09:00,64.4,36.1,30.16,ESE,123,0.9,0.9,35,0.00,,,0.00,meteobridge,2013-12-17 00:09:00,
2013-12-16 16:15:00,63.9,36.3,30.16,ESE,121,0.9,2.0,36,0.00,,,0.00,meteobridge,2013-12-17 00:15:00,
2013-12-16 16:21:00,63.5,36.1,30.16,South,169,0.9,0.9,36,0.00,,,0.00,meteobridge,2013-12-17 00:21:00,
2013-12-16 16:27:00,63.1,36.5,30.16,South,169,0.0,2.0,37,0.00,,,0.00,meteobridge,2013-12-17 00:27:00,
2013-12-16 16:33:00,62.6,36.0,30.16,WSW,248,0.9,2.0,37,0.00,,,0.00,meteobridge,2013-12-17 00:33:00,
2013-12-16 16:39:00,61.9,36.7,30.16,SSE,147,2.0,2.9,39,0.00,,,0.00,meteobridge,2013-12-17 00:39:00,
2013-12-16 16:45:00,61.0,36.5,30.16,SE,131,0.0,2.9,40,0.00,,,0.00,meteobridge,2013-12-17 00:45:00,
2013-12-16 16:51:00,60.3,36.5,30.16,SE,129,0.0,0.9,41,0.00,,,0.00,meteobridge,2013-12-17 00:51:00,
2013-12-16 16:58:00,59.7,36.0,30.16,ESE,120,0.0,0.9,41,0.00,,,0.00,meteobridge,2013-12-17 00:58:00,
2013-12-16 17:04:00,59.4,36.3,30.16,ESE,117,0.9,2.9,42,0.00,,,0.00,meteobridge,2013-12-17 01:04:00,
2013-12-16 17:10:00,58.8,36.3,30.16,ESE,120,0.0,2.0,43,0.00,,,0.00,meteobridge,2013-12-17 01:10:00,
2013-12-16 17:16:00,58.5,36.0,30.16,East,95,0.0,0.9,43,0.00,,,0.00,meteobridge,2013-12-17 01:16:00,
2013-12-16 17:22:00,58.1,36.3,30.17,East,94,0.0,0.0,44,0.00,,,0.00,meteobridge,2013-12-17 01:22:00,
2013-12-16 17:29:00,57.4,36.1,30.17,East,95,0.0,0.0,45,0.00,,,0.00,meteobridge,2013-12-17 01:29:00,
2013-12-16 17:33:00,56.8,36.3,30.17,East,95,0.0,0.0,46,0.00,,,0.00,meteobridge,2013-12-17 01:33:00,
2013-12-16 17:39:00,56.1,36.1,30.17,East,95,0.0,0.0,47,0.00,,,0.00,meteobridge,2013-12-17 01:39:00,
2013-12-16 17:45:00,55.2,36.3,30.17,East,94,0.9,0.9,49,0.00,,,0.00,meteobridge,2013-12-17 01:45:00,
2013-12-16 17:51:00,55.0,36.7,30.17,East,95,0.0,0.0,50,0.00,,,0.00,meteobridge,2013-12-17 01:51:00,
2013-12-16 17:58:00,54.1,36.3,30.17,East,95,0.0,0.0,51,0.00,,,0.00,meteobridge,2013-12-17 01:58:00,
2013-12-16 18:04:00,53.8,36.5,30.17,East,95,0.0,0.0,52,0.00,,,0.00,meteobridge,2013-12-17 02:04:00,
2013-12-16 18:10:00,53.1,36.9,30.17,East,95,0.0,0.0,54,0.00,,,0.00,meteobridge,2013-12-17 02:10:00,
2013-12-16 18:16:00,52.3,36.7,30.18,East,95,0.0,0.0,55,0.00,,,0.00,meteobridge,2013-12-17 02:16:00,
2013-12-16 18:22:00,51.8,37.0,30.17,East,95,0.0,0.0,57,0.00,,,0.00,meteobridge,2013-12-17 02:22:00,
2013-12-16 18:29:00,51.3,37.0,30.18,East,95,0.0,0.0,58,0.00,,,0.00,meteobridge,2013-12-17 02:29:00,
2013-12-16 18:35:00,50.7,36.9,30.18,East,95,0.0,0.0,59,0.00,,,0.00,meteobridge,2013-12-17 02:35:00,
2013-12-16 18:41:00,50.2,36.9,30.18,East,94,0.0,0.0,60,0.00,,,0.00,meteobridge,2013-12-17 02:41:00,
2013-12-16 18:47:00,49.6,36.7,30.18,East,94,0.0,0.0,61,0.00,,,0.00,meteobridge,2013-12-17 02:47:00,
2013-12-16 18:53:00,48.9,36.9,30.18,East,94,0.0,0.9,63,0.00,,,0.00,meteobridge,2013-12-17 02:53:00,
2013-12-16 19:00:00,48.7,36.7,30.18,NNW,339,0.0,0.0,63,0.00,,,0.00,meteobridge,2013-12-17 03:00:00,
2013-12-16 19:06:00,48.2,36.7,30.18,NNW,339,0.0,0.0,64,0.00,,,0.00,meteobridge,2013-12-17 03:06:00,
2013-12-16 19:12:00,47.8,37.0,30.18,NNW,339,0.0,0.0,66,0.00,,,0.00,meteobridge,2013-12-17 03:12:00,
2013-12-16 19:18:00,47.7,36.9,30.18,NNW,339,0.0,0.0,66,0.00,,,0.00,meteobridge,2013-12-17 03:18:00,
2013-12-16 19:24:00,47.3,36.9,30.18,NNW,339,0.0,0.0,67,0.00,,,0.00,meteobridge,2013-12-17 03:24:00,
2013-12-16 19:31:00,46.9,36.5,30.18,NNW,340,0.0,0.0,67,0.00,,,0.00,meteobridge,2013-12-17 03:31:00,
2013-12-16 19:37:00,46.6,36.5,30.18,NNW,340,0.0,0.0,68,0.00,,,0.00,meteobridge,2013-12-17 03:37:00,
2013-12-16 19:43:00,46.2,36.7,30.18,NNW,340,0.0,0.0,69,0.00,,,0.00,meteobridge,2013-12-17 03:43:00,
2013-12-16 19:49:00,45.9,36.7,30.18,NNW,340,0.0,0.9,70,0.00,,,0.00,meteobridge,2013-12-17 03:49:00,
2013-12-16 19:56:00,45.7,36.5,30.18,NNW,340,0.0,0.0,70,0.00,,,0.00,meteobridge,2013-12-17 03:56:00,
2013-12-16 20:02:00,45.1,36.3,30.18,NNW,339,0.0,0.0,71,0.00,,,0.00,meteobridge,2013-12-17 04:02:00,
2013-12-16 20:08:00,45.0,36.5,30.18,NNW,339,0.0,0.0,72,0.00,,,0.00,meteobridge,2013-12-17 04:08:00,
2013-12-16 20:14:00,45.0,36.5,30.18,NNW,339,0.0,0.0,72,0.00,,,0.00,meteobridge,2013-12-17 04:14:00,
2013-12-16 20:20:00,44.4,36.3,30.18,NNW,339,0.0,0.0,73,0.00,,,0.00,meteobridge,2013-12-17 04:20:00,
2013-12-16 20:27:00,44.1,36.0,30.18,NNW,339,0.0,0.0,73,0.00,,,0.00,meteobridge,2013-12-17 04:27:00,
2013-12-16 20:33:00,43.5,35.8,30.19,NNW,339,0.0,0.0,74,0.00,,,0.00,meteobridge,2013-12-17 04:33:00,
2013-12-16 20:39:00,43.5,36.1,30.19,NNW,339,0.0,0.0,75,0.00,,,0.00,meteobridge,2013-12-17 04:39:00,
2013-12-16 20:45:00,43.2,36.1,30.19,NNW,339,0.0,0.0,76,0.00,,,0.00,meteobridge,2013-12-17 04:45:00,
2013-12-16 20:51:00,43.0,36.0,30.19,NNW,339,0.0,0.0,76,0.00,,,0.00,meteobridge,2013-12-17 04:51:00,
2013-12-16 20:58:00,43.0,36.3,30.19,NNW,340,0.0,0.9,77,0.00,,,0.00,meteobridge,2013-12-17 04:58:00,
2013-12-16 21:02:00,43.0,36.3,30.19,NNW,340,0.0,0.9,77,0.00,,,0.00,meteobridge,2013-12-17 05:02:00,
2013-12-16 21:04:00,43.0,36.0,30.19,NNW,340,0.0,0.0,76,0.00,,,0.00,meteobridge,2013-12-17 05:04:00,
2013-12-16 21:08:00,42.8,35.8,30.19,NNW,340,0.0,0.0,76,0.00,,,0.00,meteobridge,2013-12-17 05:08:00,
2013-12-16 21:14:00,42.6,36.0,30.19,NNW,340,0.0,0.0,77,0.00,,,0.00,meteobridge,2013-12-17 05:14:00,
2013-12-16 21:20:00,42.4,35.8,30.19,NNW,340,0.0,0.0,77,0.00,,,0.00,meteobridge,2013-12-17 05:20:00,
2013-12-16 21:27:00,42.1,35.8,30.19,NNW,340,0.0,0.0,78,0.00,,,0.00,meteobridge,2013-12-17 05:27:00,
2013-12-16 21:29:00,42.1,36.0,30.19,NNW,340,0.0,0.0,79,0.00,,,0.00,meteobridge,2013-12-17 05:29:00,
2013-12-16 21:33:00,41.9,35.8,30.19,NNW,340,0.0,0.0,79,0.00,,,0.00,meteobridge,2013-12-17 05:33:00,
2013-12-16 21:39:00,41.5,35.2,30.19,NNW,340,0.0,0.0,78,0.00,,,0.00,meteobridge,2013-12-17 05:39:00,
2013-12-16 21:45:00,41.2,35.4,30.20,NNW,340,0.0,0.0,80,0.00,,,0.00,meteobridge,2013-12-17 05:45:00,
2013-12-16 21:51:00,41.4,35.6,30.20,NNW,340,0.0,0.0,80,0.00,,,0.00,meteobridge,2013-12-17 05:51:00,
2013-12-16 21:58:00,41.0,35.2,30.20,NNW,340,0.0,0.0,80,0.00,,,0.00,meteobridge,2013-12-17 05:58:00,
2013-12-16 22:04:00,40.8,35.1,30.20,NNW,340,0.0,0.0,80,0.00,,,0.00,meteobridge,2013-12-17 06:04:00,
2013-12-16 22:10:00,40.8,35.1,30.20,NNW,340,0.0,0.0,80,0.00,,,0.00,meteobridge,2013-12-17 06:10:00,
2013-12-16 22:16:00,40.8,35.1,30.20,NNW,340,0.0,0.0,80,0.00,,,0.00,meteobridge,2013-12-17 06:16:00,
2013-12-16 22:22:00,40.6,34.9,30.20,NNW,340,0.0,0.0,80,0.00,,,0.00,meteobridge,2013-12-17 06:22:00,
2013-12-16 22:29:00,40.6,34.9,30.20,NNW,340,0.0,0.0,80,0.00,,,0.00,meteobridge,2013-12-17 06:29:00,
2013-12-16 22:35:00,40.5,34.7,30.20,NNW,340,0.0,0.0,80,0.00,,,0.00,meteobridge,2013-12-17 06:35:00,
2013-12-16 22:41:00,40.3,34.9,30.20,NNW,340,0.0,0.0,81,0.00,,,0.00,meteobridge,2013-12-17 06:41:00,
2013-12-16 22:47:00,40.1,34.7,30.20,NNW,340,0.0,0.0,81,0.00,,,0.00,meteobridge,2013-12-17 06:47:00,
2013-12-16 22:53:00,39.9,34.5,30.20,NNW,340,0.0,0.0,81,0.00,,,0.00,meteobridge,2013-12-17 06:53:00,
2013-12-16 23:00:00,39.7,34.7,30.20,NNW,340,0.0,0.0,82,0.00,,,0.00,meteobridge,2013-12-17 07:00:00,
2013-12-16 23:06:00,39.7,34.7,30.20,NNW,340,0.0,0.0,82,0.00,,,0.00,meteobridge,2013-12-17 07:06:00,
2013-12-16 23:12:00,39.9,34.9,30.20,NNW,340,0.0,0.0,82,0.00,,,0.00,meteobridge,2013-12-17 07:12:00,
2013-12-16 23:18:00,39.7,35.1,30.20,NNW,340,0.0,0.0,83,0.00,,,0.00,meteobridge,2013-12-17 07:18:00,
2013-12-16 23:24:00,39.7,35.1,30.20,NNW,340,0.0,0.0,83,0.00,,,0.00,meteobridge,2013-12-17 07:24:00,
2013-12-16 23:31:00,39.7,35.1,30.20,NNW,340,0.0,0.0,83,0.00,,,0.00,meteobridge,2013-12-17 07:31:00,
2013-12-16 23:37:00,39.7,34.7,30.20,NNW,340,0.0,0.0,82,0.00,,,0.00,meteobridge,2013-12-17 07:37:00,
2013-12-16 23:43:00,39.6,34.9,30.20,NNW,340,0.0,0.0,83,0.00,,,0.00,meteobridge,2013-12-17 07:43:00,
2013-12-16 23:49:00,39.4,34.7,30.20,NNW,340,0.0,0.0,83,0.00,,,0.00,meteobridge,2013-12-17 07:49:00,
2013-12-16 23:56:00,39.4,34.9,30.19,NNW,340,0.0,0.0,84,0.00,,,0.00,meteobridge,2013-12-17 07:56:00,